| time (UTC) | temp F | wind direction | speed MPH | gust MPH | rain 1hr in | rain 24hr in | rain mn in | humidity % | barometer mb |
| 20260506040507 | 59 | 294 | 1.0 | 3.0 | 0.00 | 0.00 | 0.00 | 82 | 1015.6 |
| 20260506035746 | 59 | 258 | 1.0 | 3.0 | 0.00 | 0.00 | 0.00 | 82 | 1015.6 |
| 20260506035502 | 59 | 260 | 2.0 | 3.0 | 0.00 | 0.00 | 0.00 | 82 | 1015.5 |
| 20260506034745 | 59 | 250 | 1.0 | 3.0 | 0.00 | 0.00 | 0.00 | 83 | 1015.6 |
| 20260506034726 | 59 | 239 | 1.0 | 3.0 | 0.00 | 0.00 | 0.00 | 81 | 1015.4 |
| 20260506034003 | 60 | 240 | 1.0 | 3.0 | 0.00 | 0.00 | 0.00 | 79 | 1015.4 |
| 20260506033236 | 61 | 330 | 1.0 | 3.0 | 0.00 | 0.00 | 0.00 | 78 | 1015.3 |
| 20260506032727 | 61 | 330 | 2.0 | 3.0 | 0.00 | 0.00 | 0.00 | 77 | 1015.3 |
| 20260506032221 | 62 | 337 | 2.0 | 4.0 | 0.00 | 0.00 | 0.00 | 77 | 1015.1 |
| 20260506031719 | 62 | 322 | 2.0 | 4.0 | 0.00 | 0.00 | 0.00 | 77 | 1015.2 |
| 20260506031219 | 62 | 353 | 1.0 | 4.0 | 0.00 | 0.00 | 0.00 | 76 | 1015.2 |
| 20260506030715 | 63 | 15 | 2.0 | 4.0 | 0.00 | 0.00 | 0.00 | 76 | 1015.1 |
| 20260506030435 | 63 | 15 | 2.0 | 4.0 | 0.00 | 0.00 | 0.00 | 75 | 1015.2 |
| 20260506025708 | 63 | 4 | 3.0 | 6.0 | 0.00 | 0.00 | 0.00 | 75 | 1015.1 |
| 20260506025210 | 64 | 346 | 3.0 | 6.0 | 0.00 | 0.00 | 0.00 | 75 | 1015.0 |
| 20260506024709 | 64 | 11 | 3.0 | 7.0 | 0.00 | 0.00 | 0.00 | 75 | 1015.0 |
| 20260506024427 | 64 | 11 | 3.0 | 7.0 | 0.00 | 0.00 | 0.00 | 74 | 1015.0 |
| 20260506023711 | 64 | 22 | 3.0 | 7.0 | 0.00 | 0.00 | 0.00 | 74 | 1015.0 |
| 20260506023210 | 65 | 355 | 3.0 | 7.0 | 0.00 | 0.00 | 0.00 | 74 | 1014.9 |
| 20260506022707 | 65 | 342 | 4.0 | 8.0 | 0.00 | 0.00 | 0.00 | 73 | 1014.7 |
| 20260506022208 | 65 | 7 | 5.0 | 9.0 | 0.00 | 0.00 | 0.00 | 73 | 1014.8 |
| 20260506021933 | 65 | 17 | 4.0 | 9.0 | 0.00 | 0.00 | 0.00 | 73 | 1014.7 |
| 20260506021428 | 65 | 36 | 4.0 | 7.0 | 0.00 | 0.00 | 0.00 | 72 | 1014.7 |
| 20260506020700 | 65 | 15 | 4.0 | 7.0 | 0.00 | 0.00 | 0.00 | 72 | 1014.8 |
| 20260506020158 | 65 | 356 | 3.0 | 7.0 | 0.00 | 0.00 | 0.00 | 71 | 1014.8 |
| 20260506015658 | 66 | 50 | 4.0 | 8.0 | 0.00 | 0.00 | 0.00 | 71 | 1014.7 |
| 20260506015158 | 66 | 16 | 4.0 | 8.0 | 0.00 | 0.00 | 0.00 | 71 | 1014.8 |
| 20260506014700 | 66 | 17 | 4.0 | 8.0 | 0.00 | 0.00 | 0.00 | 70 | 1014.6 |
| 20260506014159 | 66 | 329 | 3.0 | 7.0 | 0.00 | 0.00 | 0.00 | 70 | 1014.6 |
| 20260506013657 | 66 | 36 | 3.0 | 8.0 | 0.00 | 0.00 | 0.00 | 70 | 1014.6 |
| 20260506013155 | 67 | 54 | 4.0 | 10.0 | 0.00 | 0.00 | 0.00 | 69 | 1014.6 |
| 20260506012654 | 67 | 35 | 5.0 | 10.0 | 0.00 | 0.00 | 0.00 | 69 | 1014.6 |
| 20260506012150 | 67 | 352 | 5.0 | 9.0 | 0.00 | 0.00 | 0.00 | 69 | 1014.6 |
| 20260506011650 | 67 | 44 | 5.0 | 10.0 | 0.00 | 0.00 | 0.00 | 69 | 1014.6 |
| 20260506011410 | 67 | 13 | 5.0 | 10.0 | 0.00 | 0.00 | 0.00 | 69 | 1014.6 |
| 20260506010636 | 67 | 5 | 4.0 | 8.0 | 0.00 | 0.00 | 0.00 | 69 | 1014.6 |
| 20260506010125 | 67 | 275 | 6.0 | 11.0 | 0.00 | 0.00 | 0.00 | 68 | 1014.6 |
| 20260506005610 | 67 | 10 | 5.0 | 11.0 | 0.00 | 0.00 | 0.00 | 67 | 1014.6 |
| 20260506005104 | 68 | 358 | 3.0 | 9.0 | 0.00 | 0.00 | 0.00 | 69 | 1014.6 |
| 20260506005058 | 69 | 359 | 3.0 | 8.0 | 0.00 | 0.00 | 0.00 | 65 | 1014.6 |
| 20260506004102 | 68 | 306 | 3.0 | 7.0 | 0.00 | 0.00 | 0.00 | 67 | 1014.7 |
| 20260506003558 | 68 | 28 | 5.0 | 9.0 | 0.00 | 0.00 | 0.00 | 66 | 1014.7 |
| 20260506003054 | 68 | 321 | 4.0 | 9.0 | 0.00 | 0.00 | 0.00 | 67 | 1014.8 |
| 20260506002557 | 67 | 15 | 3.0 | 8.0 | 0.00 | 0.00 | 0.00 | 67 | 1014.8 |
| 20260506002054 | 68 | 356 | 4.0 | 11.0 | 0.00 | 0.00 | 0.00 | 67 | 1014.7 |
| 20260506001818 | 68 | 33 | 4.0 | 11.0 | 0.00 | 0.00 | 0.00 | 67 | 1014.7 |
| 20260506001053 | 68 | 0 | 4.0 | 11.0 | 0.00 | 0.00 | 0.00 | 66 | 1014.7 |
| 20260506000552 | 68 | 358 | 4.0 | 9.0 | 0.00 | 0.00 | 0.00 | 67 | 1014.8 |
| 20260506000051 | 67 | 347 | 3.0 | 9.0 | 0.00 | 0.00 | 0.00 | 66 | 1014.7 |
| 20260505235550 | 68 | 22 | 2.0 | 8.0 | 0.00 | 0.00 | 0.00 | 66 | 1014.7 |
| 20260505235308 | 68 | 335 | 2.0 | 5.0 | 0.00 | 0.00 | 0.00 | 65 | 1014.8 |
| 20260505234550 | 68 | 0 | 4.0 | 9.0 | 0.00 | 0.00 | 0.00 | 65 | 1014.8 |
| 20260505234048 | 68 | 6 | 5.0 | 10.0 | 0.00 | 0.00 | 0.00 | 65 | 1014.9 |
| 20260505233544 | 68 | 17 | 6.0 | 10.0 | 0.00 | 0.00 | 0.00 | 65 | 1014.8 |
| 20260505233043 | 69 | 356 | 5.0 | 10.0 | 0.00 | 0.00 | 0.00 | 64 | 1014.9 |
| 20260505232541 | 68 | 354 | 3.0 | 7.0 | 0.00 | 0.00 | 0.00 | 64 | 1014.9 |
| 20260505232305 | 68 | 303 | 2.0 | 5.0 | 0.00 | 0.00 | 0.00 | 64 | 1015.0 |
| 20260505231543 | 68 | 344 | 3.0 | 9.0 | 0.00 | 0.00 | 0.00 | 65 | 1015.0 |
| 20260505231043 | 68 | 334 | 3.0 | 9.0 | 0.00 | 0.00 | 0.00 | 65 | 1015.0 |
| 20260505230539 | 68 | 45 | 3.0 | 7.0 | 0.00 | 0.00 | 0.00 | 65 | 1015.1 |
| 20260505230038 | 68 | 314 | 3.0 | 7.0 | 0.00 | 0.00 | 0.00 | 65 | 1015.1 |
| 20260505225537 | 67 | 307 | 3.0 | 7.0 | 0.00 | 0.00 | 0.00 | 67 | 1015.1 |
| 20260505225314 | 67 | 1 | 2.0 | 6.0 | 0.00 | 0.00 | 0.00 | 68 | 1015.1 |
| 20260505224539 | 66 | 206 | 2.0 | 5.0 | 0.00 | 0.00 | 0.00 | 68 | 1015.3 |
| 20260505224039 | 65 | 58 | 4.0 | 9.0 | 0.00 | 0.00 | 0.00 | 69 | 1015.3 |
| 20260505223536 | 67 | 34 | 4.0 | 10.0 | 0.00 | 0.00 | 0.00 | 67 | 1015.4 |
| 20260505223035 | 67 | 58 | 4.0 | 10.0 | 0.00 | 0.00 | 0.00 | 66 | 1015.3 |
| 20260505222534 | 67 | 331 | 5.0 | 12.0 | 0.00 | 0.00 | 0.00 | 71 | 1015.5 |
| 20260505222213 | 64 | 10 | 5.0 | 9.0 | 0.00 | 0.00 | 0.00 | 69 | 1015.6 |
| 20260505222108 | 66 | 298 | 5.0 | 12.0 | 0.00 | 0.00 | 0.00 | 71 | 1015.6 |
| 20260505221619 | 65 | 338 | 4.0 | 9.0 | 0.00 | 0.00 | 0.00 | 72 | 1015.7 |
| 20260505220533 | 65 | 6 | 4.0 | 9.0 | 0.00 | 0.00 | 0.00 | 70 | 1015.7 |
| 20260505220034 | 65 | 1 | 4.0 | 10.0 | 0.00 | 0.00 | 0.00 | 68 | 1015.7 |
| 20260505215535 | 65 | 13 | 3.0 | 10.0 | 0.00 | 0.00 | 0.00 | 70 | 1015.7 |
| 20260505215032 | 65 | 348 | 2.0 | 8.0 | 0.00 | 0.00 | 0.00 | 71 | 1015.7 |
| 20260505214534 | 65 | 17 | 2.0 | 8.0 | 0.00 | 0.00 | 0.00 | 68 | 1015.7 |
| 20260505214030 | 65 | 165 | 3.0 | 8.0 | 0.00 | 0.00 | 0.00 | 68 | 1015.7 |
| 20260505213536 | 64 | 358 | 2.0 | 7.0 | 0.00 | 0.00 | 0.00 | 72 | 1015.7 |
| 20260505212941 | 63 | 0 | 2.0 | 5.0 | 0.00 | 0.00 | 0.00 | 70 | 1015.8 |
| 20260505212440 | 64 | 239 | 3.0 | 8.0 | 0.00 | 0.00 | 0.00 | 70 | 1015.7 |
| 20260505211941 | 64 | 354 | 3.0 | 8.0 | 0.00 | 0.00 | 0.00 | 70 | 1015.7 |
| 20260505211438 | 64 | 7 | 3.0 | 7.0 | 0.00 | 0.00 | 0.00 | 72 | 1015.8 |
| 20260505210938 | 64 | 25 | 4.0 | 8.0 | 0.00 | 0.00 | 0.00 | 70 | 1015.8 |
| 20260505210440 | 64 | 2 | 4.0 | 8.0 | 0.00 | 0.00 | 0.00 | 73 | 1015.8 |
| 20260505205937 | 64 | 312 | 3.0 | 7.0 | 0.00 | 0.00 | 0.00 | 71 | 1015.9 |
| 20260505205438 | 64 | 6 | 3.0 | 7.0 | 0.00 | 0.00 | 0.00 | 72 | 1016.0 |
| 20260505204938 | 63 | 48 | 2.0 | 4.0 | 0.00 | 0.00 | 0.00 | 70 | 1016.0 |
| 20260505204432 | 62 | 339 | 2.0 | 4.0 | 0.00 | 0.00 | 0.00 | 71 | 1016.0 |
| 20260505203931 | 61 | 358 | 1.0 | 4.0 | 0.00 | 0.00 | 0.00 | 73 | 1016.0 |
| 20260505203431 | 61 | 327 | 1.0 | 3.0 | 0.00 | 0.00 | 0.00 | 72 | 1016.2 |
| 20260505202923 | 61 | 37 | 2.0 | 6.0 | 0.00 | 0.00 | 0.00 | 72 | 1016.2 |
| 20260505202421 | 62 | 23 | 3.0 | 7.0 | 0.00 | 0.00 | 0.00 | 72 | 1016.1 |
| 20260505201922 | 62 | 23 | 3.0 | 7.0 | 0.00 | 0.00 | 0.00 | 73 | 1016.0 |
| 20260505201421 | 62 | 10 | 2.0 | 6.0 | 0.00 | 0.00 | 0.00 | 73 | 1016.1 |
| 20260505200920 | 62 | 347 | 2.0 | 5.0 | 0.00 | 0.00 | 0.00 | 72 | 1016.1 |
| 20260505200417 | 61 | 175 | 3.0 | 5.0 | 0.00 | 0.00 | 0.00 | 73 | 1016.1 |
| 20260505195917 | 61 | 265 | 3.0 | 6.0 | 0.00 | 0.00 | 0.00 | 74 | 1016.1 |
| 20260505195638 | 61 | 239 | 2.0 | 6.0 | 0.00 | 0.00 | 0.00 | 75 | 1016.1 |
| 20260505194919 | 60 | 94 | 2.0 | 6.0 | 0.00 | 0.00 | 0.00 | 75 | 1016.1 |
| 20260505194404 | 60 | 122 | 1.0 | 6.0 | 0.00 | 0.00 | 0.00 | 74 | 1016.1 |
| 20260505193901 | 60 | 135 | 1.0 | 4.0 | 0.00 | 0.00 | 0.00 | 74 | 1016.2 |
| 20260505193842 | 60 | 138 | 1.0 | 4.0 | 0.00 | 0.00 | 0.00 | 75 | 1016.1 |
| 20260505192902 | 60 | 192 | 1.0 | 6.0 | 0.00 | 0.00 | 0.00 | 75 | 1016.1 |
| 20260505192357 | 60 | 192 | 2.0 | 6.0 | 0.00 | 0.00 | 0.00 | 77 | 1016.1 |
| 20260505191847 | 60 | 257 | 1.0 | 6.0 | 0.00 | 0.00 | 0.00 | 76 | 1016.1 |
| 20260505191342 | 59 | 160 | 1.0 | 3.0 | 0.00 | 0.00 | 0.00 | 76 | 1016.1 |
| 20260505190842 | 60 | 219 | 1.0 | 4.0 | 0.00 | 0.00 | 0.00 | 79 | 1016.0 |
| 20260505190346 | 60 | 219 | 2.0 | 4.0 | 0.00 | 0.00 | 0.00 | 77 | 1016.0 |
| 20260505185842 | 59 | 157 | 2.0 | 4.0 | 0.00 | 0.00 | 0.00 | 76 | 1016.1 |
| 20260505185546 | 59 | 200 | 3.0 | 7.0 | 0.00 | 0.00 | 0.00 | 78 | 1016.0 |
| 20260505185436 | 59 | 206 | 3.0 | 7.0 | 0.00 | 0.00 | 0.00 | 78 | 1016.0 |
| 20260505184339 | 59 | 169 | 2.0 | 4.0 | 0.00 | 0.00 | 0.00 | 77 | 1016.0 |
| 20260505183840 | 59 | 231 | 2.0 | 4.0 | 0.00 | 0.00 | 0.00 | 78 | 1016.0 |
| 20260505183559 | 59 | 231 | 1.0 | 4.0 | 0.00 | 0.00 | 0.00 | 75 | 1015.9 |
| 20260505182831 | 59 | 74 | 0.0 | 2.0 | 0.00 | 0.00 | 0.00 | 78 | 1016.0 |
| 20260505182558 | 58 | 65 | 1.0 | 3.0 | 0.00 | 0.00 | 0.00 | 77 | 1015.9 |
| 20260505181825 | 58 | 164 | 2.0 | 5.0 | 0.00 | 0.00 | 0.00 | 77 | 1015.9 |
| 20260505181322 | 58 | 223 | 3.0 | 6.0 | 0.00 | 0.00 | 0.00 | 76 | 1015.8 |
| 20260505181040 | 58 | 152 | 2.0 | 6.0 | 0.00 | 0.00 | 0.00 | 77 | 1015.8 |
| 20260505180803 | 58 | 206 | 2.0 | 4.0 | 0.00 | 0.00 | 0.00 | 77 | 1015.8 |
| 20260505175823 | 59 | 235 | 1.0 | 4.0 | 0.00 | 0.00 | 0.00 | 77 | 1015.8 |
| 20260505175545 | 58 | 260 | 1.0 | 4.0 | 0.00 | 0.00 | 0.00 | 77 | 1015.8 |
| 20260505174812 | 58 | 218 | 2.0 | 5.0 | 0.00 | 0.00 | 0.00 | 78 | 1015.8 |
| 20260505174315 | 58 | 223 | 2.0 | 6.0 | 0.00 | 0.00 | 0.00 | 76 | 1015.7 |
| 20260505173812 | 58 | 214 | 2.0 | 6.0 | 0.00 | 0.00 | 0.00 | 78 | 1015.8 |
| 20260505173310 | 57 | 137 | 2.0 | 4.0 | 0.00 | 0.00 | 0.00 | 78 | 1015.8 |
| 20260505172813 | 57 | 173 | 2.0 | 4.0 | 0.00 | 0.00 | 0.00 | 78 | 1015.8 |
| 20260505172308 | 58 | 198 | 1.0 | 4.0 | 0.00 | 0.00 | 0.00 | 77 | 1015.7 |
| 20260505171805 | 57 | 179 | 2.0 | 4.0 | 0.00 | 0.00 | 0.00 | 78 | 1015.6 |
| 20260505171303 | 57 | 147 | 3.0 | 8.0 | 0.00 | 0.00 | 0.00 | 78 | 1015.7 |
| 20260505170801 | 57 | 152 | 4.0 | 8.0 | 0.00 | 0.00 | 0.00 | 77 | 1015.7 |
| 20260505170305 | 58 | 172 | 2.0 | 8.0 | 0.00 | 0.00 | 0.00 | 78 | 1015.6 |
| 20260505170025 | 57 | 225 | 2.0 | 4.0 | 0.00 | 0.00 | 0.00 | 79 | 1015.7 |
| 20260505165301 | 57 | 178 | 2.0 | 4.0 | 0.00 | 0.00 | 0.00 | 79 | 1015.6 |
| 20260505164757 | 57 | 237 | 2.0 | 5.0 | 0.00 | 0.00 | 0.00 | 78 | 1015.6 |
| 20260505164524 | 57 | 229 | 2.0 | 5.0 | 0.00 | 0.00 | 0.00 | 79 | 1015.7 |
| 20260505163757 | 57 | 265 | 2.0 | 5.0 | 0.00 | 0.00 | 0.00 | 80 | 1015.7 |
| 20260505163519 | 57 | 182 | 1.0 | 4.0 | 0.00 | 0.00 | 0.00 | 79 | 1015.7 |
| 20260505162749 | 57 | 249 | 2.0 | 4.0 | 0.00 | 0.00 | 0.00 | 80 | 1015.7 |
| 20260505162249 | 57 | 237 | 2.0 | 4.0 | 0.00 | 0.00 | 0.00 | 80 | 1015.6 |
| 20260505161750 | 57 | 212 | 2.0 | 4.0 | 0.00 | 0.00 | 0.00 | 80 | 1015.7 |
| 20260505161253 | 57 | 247 | 1.0 | 3.0 | 0.00 | 0.00 | 0.00 | 79 | 1015.7 |
| 20260505160741 | 56 | 238 | 2.0 | 5.0 | 0.00 | 0.00 | 0.00 | 80 | 1015.7 |
| 20260505160502 | 56 | 241 | 3.0 | 5.0 | 0.00 | 0.00 | 0.00 | 80 | 1015.7 |
| 20260505152722 | 56 | 208 | 3.0 | 5.0 | 0.00 | 0.00 | 0.00 | 82 | 1015.8 |
| 20260505152216 | 56 | 228 | 3.0 | 5.0 | 0.00 | 0.00 | 0.00 | 82 | 1015.6 |
| 20260505151715 | 56 | 221 | 3.0 | 6.0 | 0.00 | 0.00 | 0.00 | 83 | 1015.7 |
| 20260505151450 | 55 | 187 | 3.0 | 6.0 | 0.00 | 0.00 | 0.00 | 83 | 1015.6 |
| 20260505150715 | 55 | 181 | 3.0 | 5.0 | 0.00 | 0.00 | 0.00 | 82 | 1015.6 |
| 20260505150433 | 55 | 204 | 3.0 | 5.0 | 0.00 | 0.00 | 0.00 | 82 | 1015.5 |
| 20260505140205 | 54 | 175 | 1.0 | 3.0 | 0.00 | 0.00 | 0.00 | 84 | 1015.3 |
| 20260505125026 | 54 | 258 | 2.0 | 3.0 | 0.00 | 0.00 | 0.00 | 85 | 1015.0 |
| 20260505124520 | 54 | 258 | 3.0 | 5.0 | 0.00 | 0.00 | 0.00 | 85 | 1014.9 |
| 20260505124017 | 54 | 254 | 3.0 | 6.0 | 0.00 | 0.00 | 0.00 | 85 | 1014.8 |
| 20260505123515 | 54 | 247 | 3.0 | 6.0 | 0.00 | 0.00 | 0.00 | 85 | 1014.9 |
| 20260505123015 | 53 | 248 | 3.0 | 6.0 | 0.00 | 0.00 | 0.00 | 85 | 1014.7 |
| 20260505122512 | 54 | 257 | 3.0 | 6.0 | 0.00 | 0.00 | 0.00 | 86 | 1014.7 |
| 20260505122012 | 54 | 293 | 2.0 | 5.0 | 0.00 | 0.00 | 0.00 | 86 | 1014.7 |
| 20260505121737 | 54 | 238 | 2.0 | 4.0 | 0.00 | 0.00 | 0.00 | 86 | 1014.7 |
| 20260505121012 | 54 | 238 | 2.0 | 4.0 | 0.00 | 0.00 | 0.00 | 86 | 1014.7 |
| 20260505120721 | 54 | 238 | 2.0 | 5.0 | 0.00 | 0.00 | 0.00 | 86 | 1014.7 |
| 20260505115950 | 54 | 232 | 3.0 | 5.0 | 0.00 | 0.00 | 0.00 | 86 | 1014.6 |
| 20260505115439 | 54 | 288 | 3.0 | 6.0 | 0.00 | 0.00 | 0.00 | 86 | 1014.7 |
| 20260505114938 | 53 | 288 | 3.0 | 6.0 | 0.00 | 0.00 | 0.00 | 87 | 1014.7 |
| 20260505114434 | 53 | 265 | 2.0 | 6.0 | 0.00 | 0.00 | 0.00 | 88 | 1014.7 |
| 20260505114154 | 53 | 244 | 1.0 | 3.0 | 0.00 | 0.00 | 0.00 | 90 | 1014.7 |
| 20260505113427 | 53 | 244 | 1.0 | 3.0 | 0.00 | 0.00 | 0.00 | 90 | 1014.8 |
| 20260505112927 | 54 | 244 | 2.0 | 5.0 | 0.00 | 0.00 | 0.00 | 88 | 1014.8 |
| 20260505112422 | 54 | 248 | 2.0 | 5.0 | 0.00 | 0.00 | 0.00 | 85 | 1014.8 |
| 20260505111917 | 54 | 230 | 1.0 | 3.0 | 0.00 | 0.00 | 0.00 | 85 | 1014.7 |
| 20260505111412 | 54 | 230 | 1.0 | 3.0 | 0.00 | 0.00 | 0.00 | 85 | 1014.8 |
| 20260505110909 | 54 | 208 | 1.0 | 2.0 | 0.00 | 0.00 | 0.00 | 86 | 1014.8 |
| 20260505110404 | 54 | 208 | 1.0 | 3.0 | 0.00 | 0.00 | 0.00 | 86 | 1014.7 |
| 20260505110127 | 54 | 208 | 1.0 | 3.0 | 0.00 | 0.00 | 0.00 | 85 | 1014.8 |
| 20260505101812 | 54 | 242 | 2.0 | 4.0 | 0.00 | 0.00 | 0.00 | 87 | 1014.6 |
| 20260505101253 | 54 | 240 | 2.0 | 3.0 | 0.00 | 0.00 | 0.00 | 87 | 1014.4 |
| 20260505100752 | 54 | 234 | 2.0 | 5.0 | 0.00 | 0.00 | 0.00 | 87 | 1014.4 |
| 20260505100252 | 54 | 242 | 3.0 | 5.0 | 0.00 | 0.00 | 0.00 | 87 | 1014.5 |
| 20260505100231 | 54 | 235 | 3.0 | 6.0 | 0.00 | 0.00 | 0.00 | 86 | 1014.5 |
| 20260505095244 | 54 | 265 | 3.0 | 6.0 | 0.00 | 0.00 | 0.00 | 87 | 1014.5 |
| 20260505094742 | 54 | 240 | 3.0 | 6.0 | 0.00 | 0.00 | 0.00 | 86 | 1014.6 |
| 20260505094240 | 54 | 227 | 4.0 | 6.0 | 0.00 | 0.00 | 0.00 | 86 | 1014.6 |
| 20260505093957 | 54 | 243 | 4.0 | 6.0 | 0.00 | 0.00 | 0.00 | 86 | 1014.4 |
| 20260505093237 | 54 | 233 | 4.0 | 8.0 | 0.00 | 0.00 | 0.00 | 86 | 1014.5 |
| 20260505092729 | 54 | 219 | 5.0 | 8.0 | 0.00 | 0.00 | 0.00 | 86 | 1014.5 |
| 20260505092229 | 54 | 232 | 4.0 | 8.0 | 0.00 | 0.00 | 0.00 | 86 | 1014.4 |
| 20260505091728 | 54 | 233 | 3.0 | 6.0 | 0.00 | 0.00 | 0.00 | 86 | 1014.4 |
| 20260505091225 | 54 | 209 | 3.0 | 6.0 | 0.00 | 0.00 | 0.00 | 86 | 1014.4 |
| 20260505090945 | 54 | 206 | 2.0 | 6.0 | 0.00 | 0.00 | 0.00 | 86 | 1014.4 |
| 20260505090224 | 54 | 206 | 2.0 | 4.0 | 0.00 | 0.00 | 0.00 | 86 | 1014.6 |
| 20260505085713 | 54 | 223 | 3.0 | 5.0 | 0.00 | 0.00 | 0.00 | 86 | 1014.4 |
| 20260505085214 | 54 | 223 | 3.0 | 5.0 | 0.00 | 0.00 | 0.00 | 86 | 1014.5 |
| 20260505084716 | 54 | 227 | 4.0 | 5.0 | 0.00 | 0.00 | 0.00 | 85 | 1014.5 |
| 20260505084213 | 54 | 229 | 3.0 | 5.0 | 0.00 | 0.00 | 0.00 | 85 | 1014.5 |
| 20260505083714 | 54 | 242 | 3.0 | 6.0 | 0.00 | 0.00 | 0.00 | 85 | 1014.4 |
| 20260505083214 | 54 | 192 | 2.0 | 6.0 | 0.00 | 0.00 | 0.00 | 85 | 1014.4 |
| 20260505082714 | 54 | 229 | 2.0 | 4.0 | 0.00 | 0.00 | 0.00 | 86 | 1014.5 |
| 20260505082204 | 54 | 229 | 2.0 | 4.0 | 0.00 | 0.00 | 0.00 | 85 | 1014.6 |
| 20260505081659 | 54 | 210 | 3.0 | 4.0 | 0.00 | 0.00 | 0.00 | 85 | 1014.6 |
| 20260505081159 | 54 | 231 | 3.0 | 5.0 | 0.00 | 0.00 | 0.00 | 85 | 1014.5 |
| 20260505080917 | 54 | 235 | 3.0 | 7.0 | 0.00 | 0.00 | 0.00 | 85 | 1014.6 |
| 20260505080158 | 54 | 212 | 4.0 | 7.0 | 0.00 | 0.00 | 0.00 | 85 | 1014.6 |
| 20260505075659 | 54 | 211 | 4.0 | 8.0 | 0.00 | 0.00 | 0.00 | 85 | 1014.6 |
| 20260505075422 | 54 | 245 | 4.0 | 8.0 | 0.00 | 0.00 | 0.00 | 85 | 1014.7 |
| 20260505074658 | 54 | 236 | 6.0 | 11.0 | 0.00 | 0.00 | 0.00 | 85 | 1014.6 |
| 20260505074420 | 54 | 227 | 6.0 | 11.0 | 0.00 | 0.00 | 0.00 | 85 | 1014.6 |
| 20260505073656 | 54 | 215 | 5.0 | 9.0 | 0.00 | 0.00 | 0.00 | 85 | 1014.7 |
| 20260505073157 | 55 | 216 | 6.0 | 11.0 | 0.00 | 0.00 | 0.00 | 85 | 1014.6 |
| 20260505072653 | 55 | 217 | 6.0 | 11.0 | 0.00 | 0.00 | 0.00 | 84 | 1014.7 |
| 20260505072407 | 55 | 224 | 5.0 | 9.0 | 0.00 | 0.00 | 0.00 | 84 | 1014.6 |
| 20260505071650 | 55 | 229 | 6.0 | 11.0 | 0.00 | 0.00 | 0.00 | 84 | 1014.6 |
| 20260505071154 | 55 | 241 | 7.0 | 11.0 | 0.00 | 0.00 | 0.00 | 84 | 1014.6 |
| 20260505070651 | 55 | 226 | 7.0 | 11.0 | 0.00 | 0.00 | 0.00 | 84 | 1014.5 |
| 20260505070148 | 55 | 233 | 8.0 | 13.0 | 0.00 | 0.00 | 0.00 | 84 | 1014.5 |
| 20260505065651 | 55 | 237 | 8.0 | 13.0 | 0.00 | 0.00 | 0.00 | 84 | 1014.6 |
| 20260505065406 | 55 | 220 | 7.0 | 11.0 | 0.00 | 0.00 | 0.00 | 84 | 1014.5 |
| 20260505064647 | 55 | 254 | 6.0 | 10.0 | 0.00 | 0.00 | 0.00 | 84 | 1014.5 |
| 20260505064145 | 55 | 229 | 6.0 | 11.0 | 0.00 | 0.00 | 0.00 | 84 | 1014.4 |
| 20260505063646 | 55 | 236 | 7.0 | 11.0 | 0.00 | 0.00 | 0.00 | 84 | 1014.4 |
| 20260505063625 | 55 | 249 | 7.0 | 12.0 | 0.00 | 0.00 | 0.00 | 84 | 1014.4 |
| 20260505062623 | 55 | 220 | 8.0 | 12.0 | 0.00 | 0.00 | 0.00 | 84 | 1014.4 |
| 20260505062109 | 55 | 215 | 7.0 | 11.0 | 0.00 | 0.00 | 0.00 | 83 | 1014.5 |
| 20260505061600 | 55 | 237 | 6.0 | 10.0 | 0.00 | 0.00 | 0.00 | 83 | 1014.4 |
| 20260505061540 | 55 | 235 | 5.0 | 9.0 | 0.00 | 0.00 | 0.00 | 83 | 1014.5 |
| 20260505060559 | 55 | 254 | 7.0 | 13.0 | 0.00 | 0.00 | 0.00 | 83 | 1014.5 |
| 20260505060055 | 55 | 246 | 7.0 | 13.0 | 0.00 | 0.00 | 0.00 | 83 | 1014.4 |
| 20260505055557 | 55 | 236 | 6.0 | 11.0 | 0.00 | 0.00 | 0.00 | 83 | 1014.4 |
| 20260505055054 | 55 | 222 | 6.0 | 11.0 | 0.00 | 0.00 | 0.00 | 83 | 1014.4 |
| 20260505054551 | 55 | 243 | 6.0 | 11.0 | 0.00 | 0.00 | 0.00 | 83 | 1014.3 |
| 20260505054050 | 55 | 231 | 6.0 | 11.0 | 0.00 | 0.00 | 0.00 | 83 | 1014.4 |
| 20260505053551 | 55 | 216 | 6.0 | 10.0 | 0.00 | 0.00 | 0.00 | 83 | 1014.3 |
| 20260505053051 | 55 | 245 | 7.0 | 11.0 | 0.00 | 0.00 | 0.00 | 83 | 1014.2 |
| 20260505052814 | 55 | 249 | 7.0 | 12.0 | 0.00 | 0.00 | 0.00 | 83 | 1014.2 |
| 20260505052049 | 55 | 223 | 6.0 | 12.0 | 0.00 | 0.00 | 0.00 | 83 | 1014.3 |
| 20260505051547 | 55 | 225 | 7.0 | 10.0 | 0.00 | 0.00 | 0.00 | 83 | 1014.4 |
| 20260505051047 | 55 | 248 | 7.0 | 10.0 | 0.00 | 0.00 | 0.00 | 83 | 1014.3 |
| 20260505051036 | 55 | 217 | 7.0 | 10.0 | 0.00 | 0.00 | 0.00 | 83 | 1014.2 |
| 20260505050307 | 55 | 233 | 7.0 | 12.0 | 0.00 | 0.00 | 0.00 | 83 | 1014.1 |
| 20260505041539 | 55 | 220 | 7.0 | 14.0 | 0.00 | 0.00 | 0.00 | 83 | 1013.6 |
| 20260505041038 | 55 | 233 | 7.0 | 11.0 | 0.00 | 0.00 | 0.00 | 83 | 1013.5 |
| 20260505040537 | 55 | 226 | 8.0 | 11.0 | 0.00 | 0.00 | 0.00 | 83 | 1013.5 |